Location: São Paulo
(23.5507°S, 46.6334°W)
Time: 13:27:18
(UTC-03:00)

Tiros 1 - Pass Details

Date: 10 February 2026
Orbit: 618 x 649 km, 48.4° (Epoch: 11 March)

Event Time Altitude Azimuth Distance (km) Brightness Sun altitude
Rises 05:28:18 0° 207° (SSW) 2,979 10.5 -5.9°
Reaches altitude 10° 05:31:24 10° 187° (S) 2,060 9.9 -5.2°
Maximum altitude 05:34:32 17° 145° (SE) 1,621 10.0 -4.5°
Drops below altitude 10° 05:37:39 10° 104° (ESE) 2,040 11.7 -3.9°
Sets 05:40:41 0° 84° (E) 2,937 12.0 -3.2°
